Starlink 5677

operational
NORAD ID: 55463 Int'l Des: 2023-015 Owner: SPXS Country: US Constellation: starlink
LEOCIRCULAR

About Starlink 5677

Description loading...

Live Position

Loading 3D Globe...

Upcoming Passes

Altitude History

Altitude vs Time

uPlot chart will show altitude changes over time

Two-Line Element Set

1 55463U 23015Q 26036.31404554 .00000102 00000-0 22596-4 0 9998
2 55463 42.9993 141.9270 0001126 265.5775 94.4939 15.02534018165887
Epoch: Feb 5, 2026 • Age: 5 hours

Current Status

Altitude 568.0 km
Velocity 7.58 km/s
Sub-Earth Point -33.81°S, 138.43°E
Launch Date Feb 2, 2023
Age 3 years
Type internet

Technical Details

Classification Payload
Mass 305.00 kg
Dry Mass 290.00 kg
Total Mass 305.00 kg
Length 0.20 m
Diameter 2.80 m
Span 9.00 m
Shape Box + pan
Manufacturer SPXS
Bus Type Starlink
Phase Status In Orbit
Owner/State SPXS/US

Large Constellations

Loading constellations...